Location: *
(50.6089°N, 2.2719°E)
Time: 01:54:11
(UTC+00:00)

STARLINK-41 - Pass Details

Date: 18 October 2019
Orbit: 549 x 551 km, 53.0° (Epoch: 16 November)

Event Time Altitude Azimuth Distance (km) Brightness Sun altitude
Rises 17:22:59 0° 244° (WSW) 2,711 8.9 -5.4°
Reaches altitude 10° 17:25:13 10° 244° (WSW) 1,819 7.7 -5.8°
Maximum altitude 17:29:21 80° 158° (SSE) 562 3.6 -6.4°
Drops below altitude 10° 17:33:30 10° 71° (ENE) 1,826 5.6 -7.1°
Enters shadow 17:33:48 - 71° (ENE) 1,943 5.8 -7.1°
